• Join FlightAware (Why Join?)
  • Login
  • US Flag GB Flag 
15:39 EDT


 

Airport Tracker/Info


-or-


 

Live Flight TrackerFlight Track Log ✈ EJA982 ✈ 27-Apr-2013 ✈ KRNO - KOAK

Flight Track Log - Related Links

Times and Time Zones

All times are in EDT time to prevent confusion due to time zone crossing. See the EJA982 flight status page for this flight to view local times or setup timezone preferences in your user account.

Time Position Orientation Groundspeed Altitude Reporting Facility
EDT Latitude Longitude Course Direction KTS MPH feet Rate Location/Type
19:32 39.6061 -119.7939 346° North 276 318 9,400  Level Oakland Center
19:33 39.6333 -119.8881 291° West 313 360 13,000 3,120 Climbing Oakland Center
19:34 39.6061 -119.9969 252° West 322 371 15,800 2,040 Climbing Oakland Center
19:35 39.5731 -120.1236 251° West 370 426 17,200 1,500 Climbing Oakland Center
19:36 39.5386 -120.2558 251° West 387 445 18,900 1,320 Climbing Oakland Center
19:37 39.5017 -120.3972 251° West 413 475 19,900 480 Climbing Oakland Center
19:38 39.4628 -120.5464 251° West 435 501 20,000  Climbing Oakland Center
19:39 39.4236 -120.6986 252° West 445 512 20,000  Level Oakland Center
19:40 39.3761 -120.8811 251° West 448 516 20,000  Level Oakland Center
19:41 39.3367 -121.0336 252° West 450 518 20,000  Level Oakland Center
19:42 39.2975 -121.1856 252° West 449 517 20,000  Level Oakland Center
19:43 39.2567 -121.3375 251° West 450 518 20,000  Level Oakland Center
19:44 39.2161 -121.4892 251° West 451 519 20,000  Level Oakland Center
19:45 39.1756 -121.6400 251° West 450 518 20,000  Level Oakland Center
19:46 39.1347 -121.7925 251° West 452 520 20,000  Level Oakland Center
19:47 39.0936 -121.9433 251° West 450 518 20,000  Level Oakland Center
19:48 39.0275 -122.0775 238° Southwest 457 526 20,000  Level Oakland Center
19:49 38.9153 -122.2081 222° Southwest 455 524 20,000  Level Oakland Center
19:50 38.8211 -122.3172 222° Southwest 456 525 20,000  Level Oakland Center
19:51 38.7275 -122.4264 222° Southwest 457 526 20,000 -540 Level Oakland Center
19:52 38.6411 -122.5267 222° Southwest 454 522 19,000 -1,680 Descending Oakland Center
19:53 38.5467 -122.6219 218° Southwest 443 510 16,700 -2,280 Descending Oakland Center
19:54 38.4267 -122.6311 183° South 441 507 14,400 -2,220 Descending Oakland Center
19:55 38.3183 -122.6097 171° South 399 459 12,300 -2,160 Descending Oakland Center
19:56 38.2067 -122.5886 172° South 337 388 10,100 -1,920 Descending Oakland Center
19:57 38.1264 -122.5728 171° South 299 344 8,400 -1,740 Descending Oakland Center
19:58 38.0581 -122.5153 146° Southeast 293 337 6,600 -1,260 Descending Oakland Center
19:59 37.9914 -122.4558 145° Southeast 289 333 5,900 -360 Descending Oakland Center
20:00 37.9344 -122.4067 146° Southeast 248 285 5,900 -120 Level Oakland Center
20:01 37.8878 -122.3497 136° Southeast 240 276 5,700 -540 Descending Oakland Center
20:02 37.8611 -122.2792 116° Southeast 227 261 4,900 -420 Descending Oakland Center
20:03 37.8364 -122.2106 115° Southeast 221 254 4,900 -480 Level Oakland Center
20:04 37.8131 -122.1456 114° Southeast 213 245 4,000 -840 Descending Oakland Center
20:05 37.7814 -122.0978 130° Southeast 200 230 3,300 -1,140 Descending Oakland Center
20:06 37.7333 -122.1200 200° South 190 219 1,800 -1,260 Descending Oakland Center
20:08 37.7106 -122.1606 235° Southwest 162 186 800 2,520 Descending Oakland Center
20:09 37.7228 -122.2019 290° West 139 160 7,000 6,060 Climbing Oakland Center